Skip Page Navigation
NASA JPL Caltech
NASA Logo - Jet Propulsion Laboratory + View the NASA Portal
+ Center for Near-Earth Object Studies
JPL Home Earth Solar System Stars & Galaxies Technology
JPL Solar System Dynamics
BODIES ORBITS EPHEMERIDES TOOLS PHYSICAL DATA DISCOVERY FAQ SITE MAP
JPL Small-Body Database Browser
Search: [ help ]  
67578 (2000 SO112)
Classification: Main-belt Asteroid          SPK-ID: 2067578
Ephemeris | Orbit Diagram | Orbital Elements | Mission Design | Physical Parameters | Discovery Circumstances | Close-Approach Data ]

[ show orbit diagram ]
Orbital Elements at Epoch 2459200.5 (2020-Dec-17.0) TDB
Reference: JPL 22 (heliocentric ecliptic J2000)
 Element Value Uncertainty (1-sigma)   Units 
e .1153806735194681 3.7136e-08  
a 2.222325535664605 6.507e-09 au
q 1.96591211858011 8.242e-08 au
i 4.709775983203857 3.8787e-06 deg
node 193.5719618160124 4.2036e-05 deg
peri 232.0014431790412 4.4831e-05 deg
M 356.5142440191752 1.4324e-05 deg
tp 2459212.216676041943
(2020-Dec-28.71667604)
4.8139e-05 TDB
period 1210.068460988867
3.31
5.3146e-06
1.455e-08
d
yr
n .2975038285898371 1.3066e-09 deg/d
Q 2.4787389527491 7.2578e-09 au
  Orbit Determination Parameters
   # obs. used (total)      956  
   data-arc span      10040 days (27.49 yr)  
   first obs. used      1993-08-17  
   last obs. used      2021-02-11  
   planetary ephem.      DE441  
   SB-pert. ephem.      SB441-N16  
   condition code      0  
   norm. resid. RMS      .49218  
   source      ORB  
   producer      Otto Matic  
   solution date      2021-Apr-13 12:30:54  

Additional Information
 Earth MOID = .982496 au 
 Jupiter MOID = 2.78202 au 
 T_jup = 3.635 
[ show covariance matrix ]

Ephemeris | Orbit Diagram | Orbital Elements | Mission Design | Physical Parameters | Discovery Circumstances | Close-Approach Data ]

Physical Parameter Table
Parameter Symbol Value Units Sigma Reference Notes
absolute magnitude H 16.28   n/a MPCxxxxx  
diameter diameter 1.900 km 0.389 urn:nasa:pds:neowise_diameters_albedos::2.0[mainbelt] (http://adsabs.harvard.edu/abs/2011ApJ...741...68M)  
rotation period rot_per 156.584 h n/a LCDB (Rev. 2020-October); Warner et al., 2009 Result based on less than full coverage, so that the period may be wrong by 30 percent or so.
Published Reference List:
[Waszczak, A.; Chang, C.-K.; Ofeck, E.O.; Laher, F.; et al. (2015) Astron. J. 150, A75.]
geometric albedo albedo 0.195   0.141 urn:nasa:pds:neowise_diameters_albedos::2.0[mainbelt] (http://adsabs.harvard.edu/abs/2011ApJ...741...68M)  

67578 (2000 SO112)          Discovered 2000-Sep-24 by LINEAR at Socorro
Reference: 20030910/Numbers.arcLast Updated: 2004-04-19

[ show close-approach data ]
Ephemeris | Orbit Diagram | Orbital Elements | Mission Design | Physical Parameters | Discovery Circumstances | Close-Approach Data ]
ABOUT SSD CREDITS/AWARDS PRIVACY/COPYRIGHT GLOSSARY LINKS
FirstGov 2021-Jun-19 22:41 UT
(server date/time)  
NASA Home Page
Site Manager:   Ryan S. Park
Webmaster  Alan B. Chamberlin